Location: Barrialito
(10.1025°N, 66.8154°W)
Time: 13:15:15
(UTC+00:00)

Daily predictions for brighter satellites

Satellite Brightness Start Highest point End
(mag) Time Altitude Azimuth Time Altitude Azimuth Time Altitude Azimuth
Cosmos 2263 Rocket 4.2 22:45:23 10° NW 22:50:23 33° WSW 22:55:23 10° SSW
Cosmos 2016 Rocket 4.0 22:44:41 10° S 22:50:49 82° E 22:56:53 10° N
FALCON 9 R/B 4.3 22:45:38 10° S 22:51:05 28° ESE 23:05:11 10° ENE
TRACE 4.4 22:48:46 10° NNE 22:52:03 56° E 22:55:20 10° S
Helios 1B rocket 3.1 22:56:14 10° SE 22:59:35 29° ENE 23:02:56 10° NNE
USA 215 4.0 22:56:37 10° ENE 23:02:14 31° SE 23:07:52 10° S
ASTRO E2 4.3 23:01:32 10° S 23:03:06 13° SE 23:04:28 11° ESE
GPS 2-12 Rocket1 4.0 23:01:14 10° SW 23:04:59 28° SSE 23:08:07 13° ESE
Cosmos 1766 Rocket 4.5 23:03:45 10° SSE 23:07:18 25° E 23:10:52 10° NE
ISS -0.8 23:07:47 10° W 23:09:57 16° NW 23:12:06 10° N
Cosmos 2292 Rocket 3.8 23:08:22 10° NNE 23:10:44 22° E 23:12:23 14° SE
YAOGAN 1 2.8 23:10:53 10° SSE 23:14:58 45° ENE 23:19:02 10° N
Landsat 7 3.8 23:11:16 10° SSE 23:15:51 57° ENE 23:20:26 10° N
Cosmos 1844 3.9 23:11:31 10° N 23:16:49 46° ENE 23:22:09 10° SE
ATLAS 3B R/B 3.7 23:10:24 10° N 23:16:53 29° ENE 23:21:28 16° ESE
NOSS 3-3 (A) 4.1 23:12:58 10° S 23:17:24 32° ESE 23:21:55 10° NE
Orbus 7S 4.4 23:14:22 10° NW 23:17:44 24° NNE 23:19:09 16° ENE
Meteor 1-27 Rocket 3.7 23:13:19 10° N 23:18:57 82° E 23:24:43 10° S
NOAA 6 3.9 23:14:15 10° SSE 23:19:20 81° ENE 23:24:25 10° N
ARIANE 5 R/B 4.4 22:58:00 10° W 23:22:36 45° SSW 23:26:04 17° SE
CZ-2C R/B 3.7 23:19:50 10° S 23:23:16 45° W 23:26:40 10° NNW
Cosmos 1726 2.1 23:24:08 10° SSW 23:26:53 55° W 23:29:37 10° N
Cosmos 2237 Rocket 2.3 23:26:04 10° S 23:31:29 48° ESE 23:36:51 10° NNE
SJ-6B 4.4 23:35:15 18° NE 23:35:15 18° NE 23:36:41 10° NNE
CBERS 1 LM4 rocket 4.3 23:32:33 10° SSE 23:37:14 59° ENE 23:42:02 10° N
Aurora 2 Rocket 3.8 23:35:08 10° NW 23:38:28 27° NNE 23:39:45 23° NE
Hubble Space Telescope 1.3 23:37:06 10° NW 23:40:49 39° NNE 23:41:31 35° NE
Cosmos 1626 1.7 23:39:44 10° N 23:42:41 71° W 23:44:30 21° S
OAO 3 Rocket 4.5 23:40:09 10° W 23:44:31 36° NNW 23:48:12 13° NNE
Cosmos 1937 Rocket 3.8 23:44:01 10° N 23:48:59 42° ENE 23:49:29 40° E
ATLAS CENTAUR R/B 1.0 23:45:48 10° SSW 23:49:10 73° WNW 23:50:41 30° NNE
Cosmos 372 Rocket 4.0 23:44:23 10° N 23:49:29 56° ENE 23:51:23 36° SE
SWIFT 4.3 23:47:58 10° SSW 23:49:17 14° S 23:49:17 14° S
